User: anonymous   Login
Location: Unspecified
(0.0000°N, 0.0000°E)
Time: 21:57:48
(UTC+01:00)
Language:

ISS - Orbit

View from above orbital plane
View from above orbital plane
View from above satellite
View from above satellite

Ground track
Ground track

The orbit data is extracted from the following two-line orbital elements,

1 25544U 98067A   14352.65510115  .00027264  00000-0  43679-3 0  5875
2 25544 051.6452 264.8021 0007365 147.6256 212.5706 15.52423269919955
Epoch (UTC): 18 December 2014 15:43:20
Eccentricity: 0.0007365
inclination: 51.6452°
perigee height: 404 km
apogee height: 414 km
right ascension of ascending node: 264.8021°
argument of perigee: 147.6256°
revolutions per day: 15.52423269
mean anomaly at epoch: 212.5706°
orbit number at epoch: 91995

The dashed part of the orbit path shows where the satellite is in the earth's shadow,  

DLR